Regional Weather Roundup
Issued by NWS Huntsville, AL

Home | Current Version | Previous Version | Text Only | Print | Product List | Glossary On
Versions: 1 2 3 4 5 6 7 8 9 10 11 12 13 14 15 16 17 18 19 20 21 22 23 24 25 26 27 28 29 30 31 32 33 34 35 36 37 38 39 40 41 42 43 44 45 46 47 48 49 50
000
ASUS44 KHUN 130710
RWRHUN

WEATHER ROUNDUP FOR THE TENNESSEE VALLEY
NATIONAL WEATHER SERVICE HUNTSVILLE AL
100 AM CST WED DEC 13 2017

ALZ001>004-130800-
NORTHWEST ALABAMA

CITY           SKY/WX    TMP DP  RH WIND       PRES   REMARKS
COURTLAND HCN    N/A     27 N/A N/A CALM        N/A
RUSSELLVILLE     N/A     25 N/A N/A MISG        N/A
SHOALS AIRPORT PTCLDY    28  16  60 NW3       30.13F
SHOALS TVA RES   N/A     27 N/A N/A MISG        N/A
$$

ALZ005>007-016-130800-
NORTH CENTRAL ALABAMA

CITY           SKY/WX    TMP DP  RH WIND       PRES   REMARKS
CULLMAN AG STN   N/A     28 N/A N/A CALM        N/A
DECATUR AP     CLOUDY    28  19  69 CALM      30.12F
HUNTSVILLE AP  PTCLDY    29  17  61 W3        30.10F
MERIDIANVILLE  CLEAR     28  21  74 CALM      30.10S
VINEMONT AP    FAIR      28  14  57 CALM      30.11S
$$

ALZ008>010-130800-
NORTHEAST ALABAMA

CITY           SKY/WX    TMP DP  RH WIND       PRES   REMARKS
ALBERTVILLE    CLEAR     32  19  59 NW7       30.06F WCI  26
FORT PAYNE     CLEAR     30   9  40 N6        30.06F WCI  24
SCOTTSBORO AP  CLEAR     28  16  59 CALM      30.10S
SCOTTSBORO HCN   N/A     27 N/A N/A MISG        N/A
VALLEY HEAD      N/A     25 N/A N/A MISG        N/A
$$

TNZ076-096-097-130800-
SOUTHEASTERN MIDDLE TENNESSEE

CITY           SKY/WX    TMP DP  RH WIND       PRES   REMARKS
TULLAHOMA      CLEAR     23  12  63 NW5       30.07F WCI  17
WINCHESTER     CLEAR     19  16  86 CALM      30.08F
$$

...SURROUNDING SITES...

CITY           SKY/WX    TMP DP  RH WIND       PRES   REMARKS
ATLANTA        CLEAR     33  15  47 NW15G25   30.01R WCI  23
ANNISTON       CLEAR     35  14  42 MISG      30.10R
BIRMINGHAM     PTCLDY    33  16  49 NW6       30.13F WCI  28
CHATTANOOGA    CLEAR     29   8  41 NW6       30.08S WCI  23
CORINTH        FAIR      27  21  80 CALM      30.12F
DALTON         CLEAR     30  14  51 N10       30.08R WCI  21
GADSDEN        CLEAR     30  18  60 CALM      30.10F
GOLDEN TRNGL     N/A    N/A N/A N/A MISG        N/A
HALEYVILLE     FAIR      26  21  81 CALM      30.12F
JACKSON TN     CLOUDY    24  19  81 S5        30.12F WCI  18
MEMPHIS        CLEAR     33  22  63 CALM      30.12F
NASHVILLE      CLOUDY    26  13  57 S3        30.10F
OXFORD MS      DRIZZLE   27  21  80 CALM      30.15S
ROME           CLEAR     32  11  41 CALM      30.06S
SAVANNAH       CLEAR     25  21  86 CALM      30.12F
SELMER         CLEAR     23  19  86 SW5       30.10F WCI  17
TUPELO         CLOUDY    28  22  78 SW3       30.13F
TUSCALOOSA     CLEAR     31  24  75 CALM      30.15F
$$

...GULF COAST WEATHER...

CITY           SKY/WX    TMP DP  RH WIND       PRES   REMARKS
GULFPORT       PTCLDY    36  33  89 NW3       30.15F
PASCAGOULA     PTCLDY    36  29  75 N3        30.15F
MOBILE         PTCLDY    40  31  70 NW6       30.15S
GULF SHORES    SUNNY     41  34  74 NW5       30.13F
PENSACOLA      CLEAR     43  34  70 NW6       30.12S
DESTIN         CLEAR     48  34  58 NW12      30.11R
APPALACHICOLA  PTCLDY    43  35  73 NW5       30.07S
$$




USA.gov is the U.S. government's official web portal to all federal, state and local government web resources and services.